FW0689 Weather Reports


time (UTC)temp
C
wind
direction
speed
KPH
gust
KPH
rain 1hr
cm
rain 24hr
cm
rain mn
cm
humidity
%
barometer
mb
20260506112731 9 17 0.0 0.0 0.00 0.00 0.00 40 1013.9
20260506104831 9 26 0.0 0.0 0.00 0.00 0.00 41 1013.8
20260506103830 9 33 0.0 0.0 0.00 0.00 0.00 41 1013.8
20260506102832 9 16 0.0 0.0 0.00 0.00 0.00 41 1013.7
20260506100930 9 23 0.0 0.0 0.00 0.00 0.00 41 1013.6
20260506095931 9 21 0.0 0.0 0.00 0.00 0.00 41 1013.5
20260506094946 9 16 0.0 0.0 0.00 0.00 0.00 41 1013.4
20260506093931 8 32 0.0 0.0 0.00 0.00 0.00 40 1013.4
20260506093831 8 12 0.0 0.0 0.00 0.00 0.00 40 1013.4
20260506092844 8 24 0.0 0.0 0.00 0.00 0.00 40 1013.4
20260506091830 8 10 0.0 0.0 0.00 0.00 0.00 40 1013.4
20260506090828 8 46 0.0 0.0 0.00 0.00 0.00 40 1013.3
20260506085832 8 14 0.0 0.0 0.00 0.00 0.00 40 1013.3
20260506084829 8 21 0.0 0.0 0.00 0.00 0.00 40 1013.0
20260506083831 8 20 0.0 0.0 0.00 0.00 0.00 40 1013.2
20260506080929 8 45 0.0 0.0 0.00 0.00 0.00 40 1013.1
20260506073031 8 27 0.0 0.0 0.00 0.00 0.00 40 1012.9
20260506072129 8 33 0.0 0.0 0.00 0.00 0.00 39 1012.9
20260506071131 8 51 0.0 0.0 0.00 0.00 0.00 40 1012.9
20260506070228 8 37 0.0 0.0 0.00 0.00 0.00 40 1012.9
20260506062329 8 20 0.0 0.0 0.00 0.00 0.00 40 1012.6
20260506061330 8 42 0.0 0.0 0.00 0.00 0.00 40 1012.5
20260506060345 8 10 0.0 0.0 0.00 0.00 0.00 40 1012.3
20260506043631 8 12 0.0 0.0 0.00 0.00 0.00 40 1012.3
20260506042632 8 1 0.0 0.0 0.00 0.00 0.00 40 1012.2
20260506041631 8 2 0.0 0.0 0.00 0.00 0.00 40 1012.2
20260506040629 8 359 0.0 0.0 0.00 0.00 0.00 40 1012.3
20260506035629 8 1 0.0 0.0 0.00 0.00 0.00 40 1012.3
20260506034728 8 4 0.0 0.0 0.00 0.00 0.00 40 1012.3
20260506033729 8 353 0.0 0.0 0.00 0.00 0.00 40 1012.4
20260506032730 8 353 0.0 0.0 0.00 0.00 0.00 40 1012.5
20260506031729 8 357 0.0 0.0 0.00 0.00 0.00 40 1012.5
20260506030730 8 350 0.0 0.0 0.00 0.00 0.00 40 1012.7
20260506025829 8 356 0.0 0.0 0.00 0.00 0.00 40 1012.5
20260506024831 8 343 0.0 0.0 0.00 0.00 0.00 40 1012.6
20260506023832 8 7 0.0 0.0 0.00 0.00 0.00 40 1012.6
20260506022830 8 355 0.0 0.0 0.00 0.00 0.00 40 1012.7
20260506020832 8 353 0.0 0.0 0.00 0.00 0.00 40 1013.0
20260506015829 8 358 0.0 0.0 0.00 0.00 0.00 40 1013.0
20260506013847 8 353 0.0 0.0 0.00 0.00 0.00 40 1013.1
20260506012931 8 3 0.0 0.0 0.00 0.00 0.00 40 1013.1
20260506011945 8 2 0.0 0.0 0.00 0.00 0.00 40 1013.3
20260506010929 8 352 0.0 0.0 0.00 0.00 0.00 40 1013.2
20260506005930 8 10 0.0 0.0 0.00 0.00 0.00 40 1013.4
20260506003929 8 10 0.0 0.0 0.00 0.00 0.00 40 1013.7
20260506002929 8 14 0.0 0.0 0.00 0.00 0.00 40 1013.6
20260506001929 8 6 0.0 0.0 0.00 0.00 0.00 40 1013.6
20260506000845 8 20 0.0 0.0 0.00 0.00 0.00 40 1013.7
20260505235930 8 1 0.0 0.0 0.00 0.00 0.00 40 1013.8
20260505235029 8 31 0.0 0.0 0.00 0.00 0.00 40 1013.9
20260505234029 8 17 0.0 0.0 0.00 0.00 0.00 40 1013.9
20260505233031 8 17 0.0 0.0 0.00 0.00 0.00 40 1014.0
20260505232029 8 13 0.0 0.0 0.00 0.00 0.00 40 1014.0
20260505231030 8 7 0.0 0.0 0.00 0.00 0.00 40 1014.1
20260505230030 8 20 0.0 0.0 0.00 0.00 0.00 40 1014.2
20260505224046 8 27 0.0 0.0 0.00 0.00 0.00 40 1014.2
20260505223130 8 5 0.0 0.0 0.00 0.00 0.00 40 1014.4
20260505220240 8 11 0.0 0.0 0.00 0.00 0.00 40 1014.5
20260505215326 9 12 0.0 0.0 0.00 0.00 0.00 40 1014.6
20260505214325 9 19 0.0 0.0 0.00 0.00 0.00 40 1014.6
20260505213326 8 9 0.0 0.0 0.00 0.00 0.00 40 1014.6
20260505212325 9 18 0.0 0.0 0.00 0.00 0.00 40 1014.7
20260505211425 9 17 0.0 0.0 0.00 0.00 0.00 40 1014.6
20260505210426 9 13 0.0 0.0 0.00 0.00 0.00 40 1014.8
20260505203427 9 5 0.0 0.0 0.00 0.00 0.00 40 1014.8
20260505202426 9 356 0.0 0.0 0.00 0.00 0.00 40 1014.9
20260505194627 10 10 0.0 0.0 0.00 0.00 0.00 39 1014.8
20260505193725 10 360 0.0 0.0 0.00 0.00 0.00 39 1014.9
20260505192824 10 1 0.0 0.0 0.00 0.00 0.00 39 1014.7
20260505191826 10 353 0.0 0.0 0.00 0.00 0.00 39 1014.8
20260505190826 10 5 0.0 0.0 0.00 0.00 0.00 39 1014.6
20260505184825 10 16 0.0 0.0 0.00 0.00 0.00 39 1014.5
20260505183825 10 7 0.0 0.0 0.00 0.00 0.00 39 1014.4
20260505182825 10 9 0.0 0.0 0.00 0.00 0.00 39 1014.3
20260505181826 10 2 0.0 0.0 0.00 0.00 0.00 39 1014.4
20260505175826 10 353 0.0 0.0 0.00 0.00 0.00 39 1014.5
20260505174925 10 357 0.0 0.0 0.00 0.00 0.00 39 1014.5
20260505173926 11 1 0.0 0.0 0.00 0.00 0.00 39 1014.5
20260505172927 11 11 0.0 0.0 0.00 0.00 0.00 39 1014.6
20260505171925 11 10 0.0 0.0 0.00 0.00 0.00 39 1014.5
20260505170926 11 355 0.0 0.0 0.00 0.00 0.00 39 1014.5
20260505170025 11 358 0.0 0.0 0.00 0.00 0.00 39 1014.6
20260505165124 11 24 0.0 0.0 0.00 0.00 0.00 39 1014.7
20260505163224 11 8 0.0 0.0 0.00 0.00 0.00 39 1014.8
20260505161226 11 12 0.0 0.0 0.00 0.00 0.00 38 1014.8
20260505160226 11 354 0.0 0.0 0.00 0.00 0.00 38 1014.8
20260505153325 11 358 0.0 0.0 0.00 0.00 0.00 39 1015.1
20260505152425 11 2 0.0 0.0 0.00 0.00 0.00 39 1015.1
20260505151426 11 16 0.0 0.0 0.00 0.00 0.00 39 1015.1
20260505150424 11 2 0.0 0.0 0.00 0.00 0.00 39 1015.1
20260505140425 11 17 0.0 0.0 0.00 0.00 0.00 39 1015.4
20260505124526 11 8 0.0 0.0 0.00 0.00 0.00 39 1016.0
20260505123525 11 48 0.0 0.0 0.00 0.00 0.00 39 1016.0
20260505122525 11 49 0.0 0.0 0.00 0.00 0.00 39 1016.0
20260505121624 11 17 0.0 0.0 0.00 0.00 0.00 39 1016.1
20260505120627 11 359 0.0 0.0 0.00 0.00 0.00 39 1016.1
20260505115642 11 22 0.0 0.0 0.00 0.00 0.00 39 1016.1
20260505114640 11 7 0.0 0.0 0.00 0.00 0.00 39 1016.1
20260505113624 11 9 0.0 0.0 0.00 0.00 0.00 39 1016.1